Location: Brantley
(31.5822°N, 86.2569°W)
Time: 03:26:05
(UTC+00:00)

Vanguard 3 - Pass Details

Date: 16 February 2026
Orbit: 507 x 3205 km, 33.4° (Epoch: 7 March)

Event Time Altitude Azimuth Distance (km) Brightness Sun altitude
Rises 02:06:58 0° 281° (W) 3,334 11.4 -33.6°
Reaches altitude 10° 02:09:49 10° 282° (WNW) 2,128 10.1 -34.2°
Enters shadow 02:11:40 22° 282° (WNW) 1,360 8.9 -34.5°
Maximum altitude 02:14:24 87° 7° (N) 550 - -35.1°
Drops below altitude 10° 02:18:03 10° 101° (ESE) 1,708 - -35.9°
Sets 02:20:07 0° 102° (ESE) 2,606 - -36.3°
